Regional Weather Roundup
Issued by NWS

Home | Current Version | Previous Version | Text Only | Print | Product List | Glossary Off
Versions: 1 2 3 4 5 6 7 8 9 10 11 12 13 14 15 16 17 18 19 20 21 22 23 24 25 26 27

000
ASUS45 KCYS 192010
RWRWY

WYOMING REGIONAL WEATHER ROUNDUP
NATIONAL WEATHER SERVICE CHEYENNE WY
100 PM MST THU JAN 19 2017

NOTE:  "FAIR" INDICATES FEW OR NO CLOUDS BELOW 12,000 FEET
WITH NO SIGNIFICANT WEATHER AND/OR OBSTRUCTIONS TO VISIBILITY.

WYZ001-192100-
YELLOWSTONE NATIONAL PARK

CITY           SKY/WX    TMP DP  RH WIND       PRES   REMARKS
LK YELLOWSTONE   N/A     27  24  89 CALM      29.65F
W YELLOWSTONE  NOT AVBL

$$
WYZ002>013-054>058-071-098>099-192100-
NORTHERN WYOMING

CITY           SKY/WX    TMP DP  RH WIND       PRES   REMARKS
JACKSON        LGT SNOW  19  19 100 CALM      29.68F
CODY           CLOUDY    27  19  72 NE3       29.51F
GREYBULL       FAIR      21  11  65 E3        29.55F
WORLAND        FAIR      25  18  74 CALM      29.54F
SHERIDAN       FAIR      37  23  56 S6        29.46F WCI  32
BUFFALO        FAIR      47  19  33 N6        29.47F
GILLETTE       FAIR      46  25  43 W12       29.47S
HULETT         FAIR      45  21  39 SW8       29.48F
NEWCASTLE      FAIR      45  19  36 CALM      29.51F

$$
WYZ014>020-022>026-101>103-192100-
CENTRAL WYOMING

CITY           SKY/WX    TMP DP  RH WIND       PRES   REMARKS
BIG PINEY      LGT SNOW  13   9  84 CALM      29.70F FOG
PINEDALE       LGT SNOW  18  12  79 CALM      29.70F
DUBOIS         NOT AVBL
LANDER         PTSUNNY   21  11  65 E3        29.58F
RIVERTON       FAIR      20  11  68 N7        29.59F WCI  11
CASPER         FAIR      40  23  50 SW32G46   29.58F WCI  28
DOUGLAS        FAIR      51  18  27 MISG      29.52F

$$
WYZ021-027>030-104>119-192100-
SOUTHERN WYOMING

CITY           SKY/WX    TMP DP  RH WIND       PRES   REMARKS
EVANSTON       FLURRIES  29  24  82 SW17      29.68F WCI  17
ROCK SPRINGS   PTSUNNY   14   9  80 CALM      29.70F
RAWLINS        FAIR      32  22  66 SW26G32   29.67F WCI  18
LARAMIE        FAIR      28  18  66 N10       29.60F WCI  19
CHEYENNE       FAIR      52  15  23 S7        29.54F
TORRINGTON     FAIR      54  17  23 CALM      29.49F

$$




USA.gov is the U.S. government's official web portal to all federal, state and local government web resources and services.